GW6666 Weather Reports


time (UTC)temp
C
wind
direction
speed
KPH
gust
KPH
rain 1hr
cm
rain 24hr
cm
rain mn
cm
humidity
%
barometer
mb
20260504150652 17 222 3.2 30.6 0.00 0.00 0.00 34 1013.7
20260504150149 17 212 20.9 22.5 0.00 0.00 0.00 34 1013.8
20260504141118 16 225 9.7 11.3 0.00 0.00 0.00 39 1014.1
20260504140615 16 226 17.7 22.5 0.00 0.00 0.00 37 1014.1
20260504140110 16 255 8.0 17.7 0.00 0.00 0.00 37 1014.3
20260504130539 14 271 12.9 14.5 0.00 0.00 0.00 40 1014.7
20260504110426 6 124 0.0 3.2 0.00 0.00 0.00 78 1015.1
20260504100343 3 307 0.0 0.0 0.00 0.00 0.00 81 1014.8
20260504081737 5 261 3.2 3.2 0.00 0.00 0.00 72 1015.0
20260504081233 5 305 0.0 3.2 0.00 0.00 0.00 72 1014.7
20260504080730 5 142 0.0 0.0 0.00 0.00 0.00 72 1014.6
20260504080226 5 85 3.2 3.2 0.00 0.00 0.00 69 1015.0
20260504070154 5 122 0.0 1.6 0.00 0.00 0.00 70 1014.7
20260504060114 6 283 0.0 1.6 0.00 0.00 0.00 65 1014.7
20260504050542 7 124 0.0 3.2 0.00 0.00 0.00 58 1014.8
20260504045536 7 113 0.0 1.6 0.00 0.00 0.00 57 1014.7
20260504045031 7 128 0.0 3.2 0.00 0.00 0.00 57 1014.5
20260504044529 7 99 0.0 1.6 0.00 0.00 0.00 56 1014.4
20260504044026 7 188 0.0 1.6 0.00 0.00 0.00 55 1014.5
20260504043523 8 210 0.0 1.6 0.00 0.00 0.00 55 1014.6
20260504043021 8 224 0.0 1.6 0.00 0.00 0.00 55 1014.5
20260504042517 8 117 0.0 0.0 0.00 0.00 0.00 54 1014.7
20260504042014 8 205 0.0 0.0 0.00 0.00 0.00 54 1014.7
20260504041510 8 108 0.0 1.6 0.00 0.00 0.00 53 1014.5
20260504041006 8 303 0.0 1.6 0.00 0.00 0.00 53 1014.3
20260504040504 8 211 0.0 0.0 0.00 0.00 0.00 52 1014.4
20260504040000 8 232 0.0 1.6 0.00 0.00 0.00 51 1014.2
20260504035457 9 2 0.0 1.6 0.00 0.00 0.00 51 1014.1
20260504034953 9 216 0.0 1.6 0.00 0.00 0.00 49 1014.2
20260504034451 9 215 0.0 1.6 0.00 0.00 0.00 49 1014.1
20260504033948 9 233 1.6 3.2 0.00 0.00 0.00 49 1013.9
20260504033446 10 269 0.0 3.2 0.00 0.00 0.00 48 1014.1
20260504032943 9 213 0.0 3.2 0.00 0.00 0.00 49 1014.3
20260504032440 9 218 1.6 3.2 0.00 0.00 0.00 49 1014.0
20260504031936 10 170 1.6 3.2 0.00 0.00 0.00 49 1014.1
20260504031433 10 158 0.0 3.2 0.00 0.00 0.00 48 1013.9
20260504030930 10 253 3.2 3.2 0.00 0.00 0.00 47 1014.0
20260504030427 10 210 1.6 3.2 0.00 0.00 0.00 47 1013.8
20260504025923 10 180 1.6 3.2 0.00 0.00 0.00 46 1014.0
20260504025420 10 189 3.2 4.8 0.00 0.00 0.00 46 1013.9
20260504024917 10 212 3.2 6.4 0.00 0.00 0.00 45 1013.9
20260504024414 10 185 1.6 4.8 0.00 0.00 0.00 45 1013.9
20260504023911 10 197 4.8 4.8 0.00 0.00 0.00 44 1014.1
20260504023408 11 202 1.6 6.4 0.00 0.00 0.00 44 1013.9
20260504022903 11 203 1.6 3.2 0.00 0.00 0.00 44 1014.1
20260504022400 11 224 0.0 3.2 0.00 0.00 0.00 43 1013.9
20260504021856 11 234 3.2 3.2 0.00 0.00 0.00 43 1013.9
20260504021354 11 209 4.8 8.0 0.00 0.00 0.00 42 1014.1
20260504020851 11 237 3.2 6.4 0.00 0.00 0.00 42 1013.9
20260504020347 11 216 1.6 6.4 0.00 0.00 0.00 42 1013.9
20260504015843 11 192 3.2 3.2 0.00 0.00 0.00 42 1013.9
20260504015340 11 225 3.2 4.8 0.00 0.00 0.00 42 1013.9
20260504014836 11 219 3.2 6.4 0.00 0.00 0.00 42 1013.9
20260504014332 11 220 3.2 4.8 0.00 0.00 0.00 42 1014.0
20260504013830 11 201 3.2 3.2 0.00 0.00 0.00 42 1013.9
20260504013328 11 206 3.2 8.0 0.00 0.00 0.00 41 1013.7
20260504012824 11 211 4.8 4.8 0.00 0.00 0.00 41 1013.7
20260504012322 11 182 1.6 6.4 0.00 0.00 0.00 40 1013.8
20260504011819 12 204 1.6 3.2 0.00 0.00 0.00 40 1013.7
20260504011316 12 222 3.2 3.2 0.00 0.00 0.00 40 1013.6
20260504010811 12 198 3.2 4.8 0.00 0.00 0.00 40 1013.5
20260504010307 12 194 3.2 4.8 0.00 0.00 0.00 39 1013.6
20260504005804 12 244 3.2 4.8 0.00 0.00 0.00 38 1013.6
20260504005301 12 180 3.2 8.0 0.00 0.00 0.00 38 1013.4
20260504004759 12 224 3.2 8.0 0.00 0.00 0.00 37 1013.4
20260504004256 13 231 3.2 11.3 0.00 0.00 0.00 36 1013.2
20260504003752 13 255 6.4 8.0 0.00 0.00 0.00 36 1013.3
20260504003249 13 253 3.2 8.0 0.00 0.00 0.00 36 1013.3
20260504002746 13 265 6.4 9.7 0.00 0.00 0.00 36 1013.1
20260504002242 13 236 3.2 9.7 0.00 0.00 0.00 36 1012.9
20260504001740 13 256 6.4 6.4 0.00 0.00 0.00 35 1012.9
20260504001237 13 264 8.0 8.0 0.00 0.00 0.00 34 1012.8
20260504000734 13 257 6.4 8.0 0.00 0.00 0.00 34 1013.1
20260504000231 14 243 3.2 9.7 0.00 0.00 0.00 34 1012.7
20260503235729 14 273 8.0 9.7 0.00 0.00 0.00 33 1012.7
20260503235226 15 264 4.8 16.1 0.00 0.00 0.00 32 1012.9
20260503234724 15 247 8.0 16.1 0.00 0.00 0.00 32 1012.7
20260503234222 15 279 4.8 12.9 0.00 0.00 0.00 32 1012.6
20260503233718 15 267 12.9 17.7 0.00 0.00 0.00 31 1012.6
20260503233214 15 208 4.8 11.3 0.00 0.00 0.00 32 1012.5
20260503232711 15 297 20.9 24.1 0.00 0.00 0.00 30 1012.5
20260503232208 15 284 22.5 25.7 0.00 0.00 0.00 29 1012.4
20260503231707 15 264 12.9 24.1 0.00 0.00 0.00 30 1012.5
20260503231203 16 273 6.4 16.1 0.00 0.00 0.00 30 1012.4
20260503230659 16 268 16.1 19.3 0.00 0.00 0.00 29 1012.4
20260503230156 16 271 20.9 25.7 0.00 0.00 0.00 29 1012.4
20260503225653 16 359 6.4 19.3 0.00 0.00 0.00 29 1012.2
20260503225153 16 199 6.4 16.1 0.00 0.00 0.00 30 1012.1
20260503224651 15 279 9.7 25.7 0.00 0.00 0.00 29 1012.1
20260503224149 15 289 11.3 20.9 0.00 0.00 0.00 30 1012.3
20260503223647 15 259 8.0 20.9 0.00 0.00 0.00 29 1012.3
20260503223143 15 274 9.7 24.1 0.00 0.00 0.00 28 1012.3
20260503222640 16 260 12.9 17.7 0.00 0.00 0.00 29 1012.2
20260503222137 16 352 16.1 33.8 0.00 0.00 0.00 29 1012.2
20260503221636 16 261 12.9 25.7 0.00 0.00 0.00 28 1012.3
20260503221133 15 244 9.7 17.7 0.00 0.00 0.00 28 1012.3
20260503220630 15 267 8.0 29.0 0.00 0.00 0.00 29 1012.3
20260503220126 16 304 12.9 27.4 0.00 0.00 0.00 28 1012.3
20260503215623 16 268 11.3 22.5 0.00 0.00 0.00 28 1012.1
20260503215120 16 275 24.1 33.8 0.00 0.00 0.00 27 1012.3
20260503214619 16 263 14.5 35.4 0.00 0.00 0.00 28 1012.3
20260503214115 16 263 22.5 25.7 0.00 0.00 0.00 27 1012.2
20260503213614 16 250 4.8 17.7 0.00 0.00 0.00 27 1012.2
20260503213110 16 328 12.9 25.7 0.00 0.00 0.00 27 1012.1
20260503212608 16 334 16.1 25.7 0.00 0.00 0.00 27 1012.2
20260503212105 16 275 9.7 24.1 0.00 0.00 0.00 27 1012.1
20260503211602 16 314 19.3 27.4 0.00 0.00 0.00 27 1012.0
20260503211057 15 273 14.5 24.1 0.00 0.00 0.00 27 1012.3
20260503210554 15 321 11.3 22.5 0.00 0.00 0.00 27 1012.2
20260503210050 15 284 4.8 24.1 0.00 0.00 0.00 28 1012.2
20260503205547 15 272 24.1 25.7 0.00 0.00 0.00 27 1012.1
20260503205043 16 277 12.9 37.0 0.00 0.00 0.00 26 1012.2
20260503204540 15 354 4.8 22.5 0.00 0.00 0.00 28 1012.2
20260503204037 15 257 20.9 22.5 0.00 0.00 0.00 27 1012.4
20260503203534 15 290 16.1 27.4 0.00 0.00 0.00 27 1012.3
20260503203031 15 272 30.6 33.8 0.00 0.00 0.00 27 1012.2
20260503202529 15 261 14.5 24.1 0.00 0.00 0.00 28 1012.5
20260503202027 15 274 14.5 27.4 0.00 0.00 0.00 27 1012.6
20260503201525 15 277 16.1 27.4 0.00 0.00 0.00 27 1012.5
20260503201022 15 285 17.7 30.6 0.00 0.00 0.00 27 1012.5
20260503200518 15 248 9.7 20.9 0.00 0.00 0.00 27 1012.4
20260503200015 15 276 19.3 20.9 0.00 0.00 0.00 28 1012.7
20260503195512 15 255 17.7 24.1 0.00 0.00 0.00 28 1012.6
20260503195009 15 298 14.5 30.6 0.00 0.00 0.00 27 1012.7
20260503194506 15 277 17.7 24.1 0.00 0.00 0.00 28 1012.9
20260503194000 14 278 17.7 20.9 0.00 0.00 0.00 28 1013.0
20260503193457 14 313 9.7 25.7 0.00 0.00 0.00 29 1013.1
20260503192952 13 335 14.5 20.9 0.00 0.00 0.00 30 1013.1
20260503192449 13 275 19.3 40.2 0.00 0.00 0.00 28 1013.3
20260503191944 14 298 6.4 25.7 0.00 0.00 0.00 29 1013.3
20260503191442 15 275 16.1 35.4 0.00 0.00 0.00 28 1013.3
20260503190938 14 302 20.9 32.2 0.00 0.00 0.00 29 1013.1
20260503190436 14 295 11.3 11.3 0.00 0.00 0.00 31 1013.2
20260503185933 14 311 14.5 24.1 0.00 0.00 0.00 30 1013.3
20260503185429 14 299 8.0 29.0 0.00 0.00 0.00 30 1013.4
20260503184928 13 258 16.1 37.0 0.00 0.00 0.00 30 1013.3
20260503184425 13 330 25.7 32.2 0.00 0.00 0.00 30 1013.6
20260503183922 13 328 22.5 25.7 0.00 0.00 0.00 31 1013.6
20260503183418 14 264 24.1 27.4 0.00 0.00 0.00 29 1013.4
20260503182915 13 312 17.7 29.0 0.00 0.00 0.00 31 1013.6
20260503182414 13 305 17.7 30.6 0.00 0.00 0.00 29 1013.7
20260503181911 13 271 19.3 24.1 0.00 0.00 0.00 30 1013.6
20260503181408 13 290 17.7 33.8 0.00 0.00 0.00 29 1013.5
20260503180904 13 298 17.7 30.6 0.00 0.00 0.00 31 1013.5
20260503180403 13 353 6.4 37.0 0.00 0.00 0.00 31 1013.5
20260503175858 13 290 19.3 33.8 0.00 0.00 0.00 30 1013.6
20260503175357 13 314 11.3 30.6 0.00 0.00 0.00 31 1013.8
20260503174857 12 261 22.5 38.6 0.00 0.00 0.00 31 1013.7
20260503174357 13 286 17.7 38.6 0.00 0.00 0.00 31 1013.5
20260503173856 12 324 20.9 33.8 0.00 0.00 0.00 32 1013.7
20260503173353 12 328 11.3 24.1 0.00 0.00 0.00 31 1013.7
20260503172850 12 293 12.9 17.7 0.00 0.00 0.00 31 1013.7
20260503172348 12 298 14.5 43.5 0.00 0.00 0.00 30 1013.8
20260503171843 12 323 14.5 30.6 0.00 0.00 0.00 32 1013.9
20260503171340 12 332 16.1 25.7 0.00 0.00 0.00 32 1014.0
20260503170838 12 268 22.5 37.0 0.00 0.00 0.00 33 1013.8
20260503170334 12 317 12.9 22.5 0.00 0.00 0.00 31 1014.0